This demonstration page uses our WeatherBlox Daily Observations layout. Learn more.

Left ArrowRight Arrow

38.80484, -77.04692

Hourly Observations for October 4, 2019

Temp ( °F °C ) Dew Point ( °F °C ) Humidity (%) Winds ( mph kmh ) Pressure ( in mb ) Visibility ( mi km ) Precip ( " mm )
12:52 am 00:52 Cloudy 75 23.9 70 21.1 84 84 S 7 11 29.93 1014 10 16 0.00 0.00
1:52 am 01:52 Cloudy 75 23.9 70 21.1 84 84 Calm 29.94 1014 10 16 0.00 0.00
2:52 am 02:52 Cloudy 75 23.9 70 21.1 84 84 NNW 6 9 29.93 1014 10 16 0.00 0.00
3:52 am 03:52 Cloudy 75 23.9 70 21.1 84 84 NNW 6 9 29.94 1014 10 16 0.00 0.00
4:19 am 04:19 Cloudy 75 23.9 70 21.1 84 84 NNW 8 13 29.96 1014 10 16 0.00 0.00
4:52 am 04:52 Mostly Cloudy 74 23.3 70 21.1 88 88 N 16 26 29.96 1015 10 16 0.00 0.00
5:09 am 05:09 Partly Cloudy 73 22.8 68 20 84 84 N 15 24 29.97 1015 10 16 0.00 0.00
5:52 am 05:52 Mostly Clear 73 22.8 63 17.2 71 71 N 15 24 29.99 1016 10 16 0.00 0.00
6:52 am 06:52 Mostly Clear 71 21.7 60 15.6 68 68 N 13 20 30.02 1017 10 16 0.00 0.00
7:52 am 07:52 Mostly Sunny 71 21.7 57 13.9 61 61 N 14 22 30.05 1018 10 16 0.00 0.00
8:52 am 08:52 Mostly Sunny 72 22.2 54 12.2 53 53 N 17 28 30.07 1018 10 16 0.00 0.00
9:52 am 09:52 Mostly Sunny 74 23.3 52 11.1 46 46 N 18 30 30.09 1019 10 16 0.00 0.00
10:52 am 10:52 Partly Cloudy 76 24.4 52 11.1 43 43 NNW 17 28 30.11 1020 10 16 0.00 0.00
11:52 am 11:52 Partly Cloudy 77 25 52 11.1 42 42 N 15 24 30.11 1020 10 16 0.00 0.00
12:52 pm 12:52 Partly Cloudy 78 25.6 51 10.6 39 39 N 15 24 30.11 1020 10 16 0.00 0.00
1:52 pm 13:52 Partly Cloudy 79 26.1 49 9.4 35 35 N 16 26 30.11 1020 10 16 0.00 0.00
2:52 pm 14:52 Partly Cloudy 77 25 46 7.8 33 33 N 18 30 30.11 1020 10 16 0.00 0.00
3:52 pm 15:52 Partly Cloudy 79 26.1 46 7.8 31 31 N 14 22 30.11 1020 10 16 0.00 0.00
4:52 pm 16:52 Mostly Sunny 78 25.6 46 7.8 32 32 N 15 24 30.12 1020 10 16 0.00 0.00
5:52 pm 17:52 Mostly Sunny 74 23.3 48 8.9 40 40 N 18 30 30.14 1021 10 16 0.00 0.00
6:52 pm 18:52 Mostly Clear 71 21.7 48 8.9 44 44 NNE 16 26 30.16 1021 10 16 0.00 0.00
7:52 pm 19:52 Clear 68 20 48 8.9 49 49 NE 17 28 30.20 1023 10 16 0.00 0.00
8:52 pm 20:52 Mostly Clear 63 17.2 47 8.3 56 56 NE 21 33 30.24 1024 10 16 0.00 0.00
9:52 pm 21:52 Clear 59 15 42 5.6 54 54 NNE 14 22 30.29 1026 10 16 0.00 0.00
10:52 pm 22:52 Mostly Clear 57 13.9 42 5.6 58 58 NE 17 28 30.32 1027 10 16 0.00 0.00
11:52 pm 23:52 Partly Cloudy 56 13.3 40 4.4 55 55 NNE 16 26 30.34 1027 10 16 0.00 0.00

Powered by AerisWeather